Home > Time Zones > World Clock > Weather > Italy > Parma > Past weeks

Flag for Italy Weather past 2 weeks in Parma, Italy

Now
66 °F

Clear.


Feels Like: 66 °F
Forecast: 54 / 81 °F
Wind: 3 mph from North

Location: Parma

Current Time: May 28, 2015 at 11:25:39 PM

Latest Report: May 28, 2015 at 10:50 PM


Visibility: 10 mi

Pressure: 30.01 "Hg

Humidity: 64%

Dew point: 54 °F

Location of ParmaLocation

Historic Weather in Parma — Graph

°F

Parma temperature yesterday

Maximum temperature yesterday: 73 °F (at 4:50 PM)
Minimum temperature yesterday: 59 °F (at 7:00 AM)
Average temperature yesterday: 68 °F

Past Weeks' High & Low Weather Summary

 TemperatureHumidityPressure
High84 °F (May 14, 2:50 PM)100% (May 23, 10:50 PM)30.15 "Hg (May 23, 10:50 PM)
Low50 °F (May 21, 7:00 AM)32% (May 19, 5:50 PM)29.62 "Hg (May 15, 9:50 AM)
Average67 °F67%29.90 "Hg
* Reported May 13 9:50 PM — May 28 9:50 PM, Parma, Weather by CustomWeather, © 2015

Note: Actual official high and low records may vary slightly from our data, if they occured in-between our weather recording intervals... More about our weather records

Advertising

Parma weather history for previous 24 hours

 ConditionsComfort  
Time TempWeatherWind HumidityBarometerVisibility
9:50 PM
Thu, May 28
68 °FSunny.5 mph60%29.98 "Hg10 mi
8:50 PM68 °FSunny.3 mph64%29.98 "Hg10 mi
7:50 PM72 °FSunny.5 mph57%29.98 "Hg10 mi
6:50 PM73 °FPassing clouds.6 mph50%29.98 "HgN/A
5:50 PM75 °FSunny.3 mph50%30.01 "Hg10 mi
4:50 PM75 °FSunny.3 mph47%30.01 "Hg10 mi
3:50 PM73 °FPassing clouds.5 mph47%30.04 "HgN/A
2:50 PM73 °FSunny.1 mph44%30.04 "Hg10 mi
1:50 PM73 °FSunny.3 mph50%30.04 "Hg10 mi
12:50 PM72 °FSunny.3 mph47%30.07 "Hg10 mi
11:50 AM70 °FSunny.3 mph60%30.07 "Hg10 mi
10:50 AM66 °FPassing clouds.5 mph64%30.09 "HgN/A
9:50 AM64 °FPassing clouds.5 mph68%30.09 "HgN/A
8:50 AM63 °FSunny.2 mph68%30.09 "Hg10 mi
7:50 AM59 °FSunny.3 mph77%30.07 "Hg10 mi
7:00 AM55 °FPassing clouds.3 mph88%30.07 "HgN/A
Weather by CustomWeather, © 2015

See weather overviewHow to use our weather pages